Weather History for KDIJ - February, 2014

Change the Weather History Date:

Thursday, February 20, 2014

  Actual Average (KRXE) Record (KRXE)
Temperature  
Mean Temperature 11 °F 24 °F  
Max Temperature 26 °F 34 °F 46 °F (2015)
Min Temperature -4 °F 13 °F -4 °F (2010)
Degree Days  
Heating Degree Days 54 42  
Month to date heating degree days 878  
Since 1 July heating degree days 5655  
Cooling Degree Days 0 0  
Month to date cooling degree days 0  
Year to date cooling degree days 0  
Moisture  
Dew Point 15 °F    
Average Humidity 80    
Maximum Humidity 93    
Minimum Humidity 62    
Precipitation  
Precipitation 0.00 in 0.03 in 0.49 in (1980)
Month to date precipitation 0.59  
Year to date precipitation 1.33  
Sea Level Pressure  
Sea Level Pressure 30.03 in    
Wind  
Wind Speed 12 mph (SSW)    
Max Wind Speed 26 mph    
Max Gust Speed 32 mph    
Visibility 4 miles    
Events Fog , Snow    
T = Trace of Precipitation, MM = Missing Value Source: NWS Daily Summary

Daily Weather History Graph

Daily Weather History Graph

Search for Another Location

Airport or City:

Trip Planner

Search our weather history database for the weather conditions in past years. The results will help you decide how hot, cold, wet, or windy it might be!

Date:

Astronomy

Feb. 20, 2014 Rise Set
Actual Time 7:15 AM MST 6:01 PM MST
Civil Twilight 6:46 AM MST 6:30 PM MST
Nautical Twilight 6:12 AM MST 7:04 PM MST
Astronomical Twilight 5:39 AM MST 7:37 PM MST
Moon No Moon Rise 9:49 AM MST (2/20)
Length of Visible Light 11h 44m
Length of Day
10h 45m
Waning Gibbous, 70% of the Moon is Illuminated
Feb 20
Waning Gibbous
Feb 22
Last Quarter
Mar 1
New
Mar 8
First Quarter
Mar 16
Full

Hourly Weather History & Observations

Time (MST) Temp. Windchill Dew Point Humidity Pressure Visibility Wind Dir Wind Speed Gust Speed Precip Events Conditions
12:56 AM 0.1 °F -12.8 °F -4.9 °F 79% 30.12 in 10.0 mi ESE 6.9 mph - N/A   Clear
1:56 AM 11.1 °F - 2.1 °F 67% 30.07 in 10.0 mi Calm Calm - N/A   Scattered Clouds
2:56 AM 1.0 °F -8.7 °F -4.0 °F 79% 30.16 in 10.0 mi ESE 4.6 mph - N/A   Clear
3:56 AM -4.9 °F -18.8 °F -10.8 °F 76% 30.21 in 10.0 mi East 6.9 mph - N/A   Clear
4:56 AM 9.1 °F 0.8 °F -0.9 °F 64% 30.17 in 10.0 mi South 4.6 mph - N/A   Clear
5:56 AM 5.0 °F -6.9 °F -4.0 °F 66% 30.20 in 10.0 mi SE 6.9 mph - N/A   Clear
6:56 AM -4.9 °F -21.3 °F -11.9 °F 72% 30.28 in 10.0 mi East 9.2 mph - N/A   Clear
7:56 AM 1.0 °F -12.9 °F -6.9 °F 69% 30.30 in 7.0 mi SE 8.1 mph - N/A   Clear
8:56 AM 13.1 °F -0.7 °F 4.1 °F 67% 30.28 in 9.0 mi South 11.5 mph - N/A   Overcast
9:56 AM 17.1 °F 4.3 °F 6.1 °F 62% 30.25 in 9.0 mi SSE 11.5 mph - N/A   Overcast
10:56 AM 18.1 °F 5.0 °F 8.1 °F 65% 30.26 in 9.0 mi SSE 12.7 mph - N/A   Mostly Cloudy
11:56 AM 20.1 °F 7.5 °F 11.1 °F 68% 30.26 in 9.0 mi South 12.7 mph - N/A   Mostly Cloudy
12:56 PM 22.1 °F 8.9 °F 12.0 °F 65% 30.24 in 7.0 mi SSE 15.0 mph - N/A   Mostly Cloudy
1:56 PM 22.1 °F 8.5 °F 14.0 °F 71% 30.14 in 10.0 mi South 16.1 mph - N/A   Overcast
2:56 PM 23.0 °F 11.1 °F 15.1 °F 72% 30.17 in 10.0 mi South 12.7 mph - N/A   Overcast
3:19 PM 21.2 °F 8.3 °F 15.8 °F 80% 30.01 in 3.0 mi South 13.8 mph - 0.00 in Snow Light Snow
3:56 PM 22.1 °F 11.3 °F 16.2 °F 78% 30.19 in 6.0 mi SSE 10.4 mph - 0.00 in   Haze
4:32 PM 23.0 °F 9.6 °F 15.8 °F 74% 30.00 in 2.5 mi South 16.1 mph - 0.00 in   Haze
4:38 PM 21.2 °F 6.8 °F 17.6 °F 86% 29.99 in 1.2 mi South 17.3 mph - 0.00 in   Haze
4:48 PM 21.2 °F 6.4 °F 17.6 °F 86% 29.98 in 1.0 mi South 18.4 mph - 0.00 in Snow Light Snow
4:56 PM 22.1 °F 8.0 °F 18.1 °F 85% 30.10 in 0.5 mi South 17.3 mph - 0.00 in Fog , Snow Light Snow
5:11 PM 21.2 °F 7.8 °F 17.6 °F 86% 29.97 in 0.8 mi South 15.0 mph - 0.00 in Snow Light Snow
5:19 PM 21.2 °F 7.8 °F 17.6 °F 86% 29.97 in 0.5 mi South 15.0 mph - 0.00 in Fog , Snow Light Snow
5:56 PM 22.1 °F 7.6 °F 19.0 °F 88% 30.09 in 0.5 mi SSW 18.4 mph - 0.00 in Fog , Snow Light Snow
6:27 PM 21.2 °F 6.0 °F 19.4 °F 93% 29.94 in 1.0 mi South 19.6 mph 27.6 mph 0.00 in Snow Light Snow
6:45 PM 21.2 °F 6.4 °F 17.6 °F 86% 29.93 in 1.0 mi South 18.4 mph - 0.00 in Snow Light Snow
6:56 PM 23.0 °F 8.3 °F 19.0 °F 85% 30.11 in 1.5 mi South 19.6 mph - 0.00 in   Overcast
7:37 PM 24.8 °F 12.9 °F 19.4 °F 80% 29.92 in 3.0 mi SSW 13.8 mph - 0.00 in Snow Light Snow
7:49 PM 24.8 °F 11.5 °F 19.4 °F 80% 29.92 in 2.5 mi South 17.3 mph - 0.00 in Snow Light Snow
7:56 PM 24.1 °F 9.8 °F 19.0 °F 81% 30.06 in 2.0 mi SSW 19.6 mph - 0.00 in Snow Light Snow
7:59 PM 24.8 °F 10.7 °F 19.4 °F 80% 29.92 in 1.8 mi South 19.6 mph - 0.00 in Snow Light Snow
8:03 PM 23.0 °F 8.7 °F 19.4 °F 86% 29.92 in 1.2 mi South 18.4 mph - 0.00 in Snow Light Snow
8:16 PM 23.0 °F 9.6 °F 19.4 °F 86% 29.92 in 1.2 mi South 16.1 mph 26.5 mph 0.00 in Snow Light Snow
8:23 PM 23.0 °F 9.6 °F 19.4 °F 86% 29.92 in 1.8 mi South 16.1 mph 24.2 mph 0.00 in Snow Light Snow
8:31 PM 23.0 °F 9.6 °F 19.4 °F 86% 29.92 in 2.5 mi South 16.1 mph - 0.00 in Snow Light Snow
8:45 PM 24.8 °F 11.1 °F 21.2 °F 86% 29.92 in 1.2 mi SSW 18.4 mph 27.6 mph 0.00 in Snow Light Snow
8:56 PM 25.2 °F 10.8 °F 21.0 °F 84% 30.00 in 1.5 mi SW 20.7 mph 27.6 mph 0.00 in Snow Light Snow
9:04 PM 24.8 °F 9.6 °F 21.2 °F 86% 29.92 in 1.0 mi SW 23.0 mph 27.6 mph 0.00 in Snow Light Snow
9:14 PM 24.8 °F 10.7 °F 21.2 °F 86% 29.91 in 1.5 mi SSW 19.6 mph - 0.00 in Snow Light Snow
9:19 PM 24.8 °F 8.7 °F 21.2 °F 86% 29.91 in 1.0 mi SW 26.5 mph 32.2 mph 0.00 in Snow Light Snow
9:25 PM 24.8 °F 9.3 °F 21.2 °F 86% 29.91 in - SW 24.2 mph 32.2 mph 0.00 in Snow Light Snow
9:37 PM 24.8 °F 9.0 °F 21.2 °F 86% 29.91 in 1.0 mi SW 25.3 mph 28.8 mph 0.00 in Snow Light Snow
9:44 PM 24.8 °F 9.0 °F 21.2 °F 86% 29.91 in 0.8 mi SW 25.3 mph - 0.00 in Snow Light Snow
9:56 PM 25.2 °F 9.8 °F 21.0 °F 84% 29.98 in 0.8 mi SW 24.2 mph 32.2 mph 0.00 in Snow Light Snow
10:00 PM 24.8 °F 10.3 °F 21.2 °F 86% 29.91 in 1.0 mi SW 20.7 mph 32.2 mph 0.00 in Snow Light Snow
10:05 PM 24.8 °F 11.5 °F 21.2 °F 86% 29.91 in 1.8 mi SW 17.3 mph - 0.00 in Snow Light Snow
10:07 PM 24.8 °F 11.5 °F 21.2 °F 86% 29.91 in 3.0 mi SW 17.3 mph - 0.00 in Snow Light Snow
10:56 PM 25.2 °F 12.4 °F 21.0 °F 84% 29.98 in 4.0 mi SW 16.1 mph 25.3 mph 0.00 in Snow Light Snow
11:13 PM 24.8 °F 11.1 °F 21.2 °F 86% 29.92 in 2.0 mi SW 18.4 mph - 0.00 in Snow Light Snow
11:21 PM 24.8 °F 12.9 °F 21.2 °F 86% 29.93 in 3.0 mi SW 13.8 mph - 0.00 in Snow Light Snow
11:42 PM 24.8 °F 14.0 °F 21.2 °F 86% 29.93 in 10.0 mi WSW 11.5 mph - 0.00 in Snow Light Snow
11:49 PM 26.6 °F 16.2 °F 19.4 °F 74% 29.92 in 8.0 mi WSW 11.5 mph - 0.00 in Snow Light Snow
11:56 PM 26.1 °F 16.2 °F 20.1 °F 78% 29.98 in 6.0 mi West 10.4 mph - 0.00 in Snow Light Snow